STARLINK-31911

Last updated on Fri Sep 20 2024 00:02:03 GMT+0000 (Coordinated Universal Time)

1 60587U 24150E 24263.42796200 .00003788 00000+0 10461-3 0 9995 2 60587 53.1595 280.2942 0001914 104.3502 255.7715 15.39632087 5824
UTC large
Height (km)
Speed (km/s)
/
Latitude / Longitude
Inclination (degrees)
Orbital Period (minutes)
Azimuth
Elevation
Range (km)
Doppler Factor

Next 0 passes for location: London (51.5072 / 0.1276)

Sorry there are no passes over London.